When you browse on this site, cookies collect data to enhance your experience and personalize the content and advertising you see.
Visit our Privacy Policy to learn more. By continuing to use the site, you agree to this use of cookies and data.
  • In Hungary
  • List of Countries
  • For 7 days
  • Water Temperature
  • Satellite Maps
  • Weather Map
  • News
  • Weather Widgets
  • user-avatar
    Login

    Hourly Weather Vinnitsa

    Today, 21 January, Monday

    Time Temperature Precipitation Wind Pressure Humidity
    00:00 -4°C° 0.2 mm 1 mps 735 mmHg 97%
    01:00 -7°C° 0.2 mm 2 mps 735 mmHg 97%
    02:00 -7°C° 0.2 mm 2 mps 735 mmHg 96%
    03:00 -8°C° 0 mm 3 mps 735 mmHg 96%
    04:00 -9°C° 0 mm 3 mps 735 mmHg 96%
    05:00 -9°C° 0 mm 3 mps 735 mmHg 96%
    06:00 -10°C° 0 mm 3 mps 735 mmHg 95%
    07:00 -12°C° 0 mm 3 mps 736 mmHg 95%
    08:00 -13°C° 0 mm 3 mps 736 mmHg 95%
    09:00 -13°C° 0 mm 3 mps 737 mmHg 95%
    10:00 -12°C° 0 mm 3 mps 737 mmHg 95%
    11:00 -11°C° 0 mm 4 mps 738 mmHg 95%
    12:00 -9°C° 0 mm 3 mps 738 mmHg 94%
    13:00 -8°C° 0 mm 3 mps 738 mmHg 93%
    14:00 -8°C° 0 mm 3 mps 738 mmHg 92%
    15:00 -8°C° 0 mm 3 mps 738 mmHg 92%
    16:00 -9°C° 0 mm 3 mps 739 mmHg 93%
    17:00 -9°C° 0 mm 2 mps 739 mmHg 94%
    18:00 -10°C° 0 mm 2 mps 739 mmHg 94%
    19:00 -10°C° 0 mm 2 mps 739 mmHg 95%
    20:00 -12°C° 0 mm 2 mps 739 mmHg 95%
    21:00 -11°C° 0 mm 1 mps 739 mmHg 95%
    22:00 -12°C° 0 mm 1 mps 739 mmHg 96%
    23:00 -14°C° 0 mm 1 mps 739 mmHg 97%

    Tomorrow, 22 January, Tuesday

    Time Temperature Precipitation Wind Pressure Humidity
    00:00 -14°C° 0 mm 1 mps 739 mmHg 96%
    01:00 -15°C° 0 mm 1 mps 739 mmHg 96%
    02:00 -15°C° 0 mm 1 mps 739 mmHg 96%
    03:00 -15°C° 0 mm 1 mps 739 mmHg 96%
    04:00 -16°C° 0 mm 0 mps 739 mmHg 96%
    05:00 -16°C° 0 mm 0 mps 739 mmHg 96%
    06:00 -16°C° 0 mm 1 mps 739 mmHg 95%
    07:00 -16°C° 0 mm 1 mps 739 mmHg 94%
    08:00 -16°C° 0 mm 1 mps 739 mmHg 93%
    09:00 -16°C° 0 mm 2 mps 739 mmHg 92%
    10:00 -15°C° 0 mm 2 mps 739 mmHg 91%
    11:00 -14°C° 0 mm 2 mps 739 mmHg 91%
    12:00 -13°C° 0 mm 2 mps 739 mmHg 91%
    13:00 -13°C° 0 mm 3 mps 738 mmHg 91%
    14:00 -13°C° 0 mm 3 mps 738 mmHg 90%
    15:00 -13°C° 0 mm 3 mps 737 mmHg 91%
    16:00 -14°C° 0 mm 3 mps 737 mmHg 92%
    17:00 -15°C° 0 mm 4 mps 736 mmHg 92%
    18:00 -15°C° 0 mm 4 mps 736 mmHg 92%
    19:00 -15°C° 0 mm 4 mps 736 mmHg 92%
    20:00 -14°C° 0 mm 5 mps 735 mmHg 92%
    21:00 -14°C° 0.3 mm 5 mps 735 mmHg 93%
    22:00 -13°C° 0.3 mm 5 mps 734 mmHg 94%
    23:00 -12°C° 0.3 mm 5 mps 734 mmHg 95%

    Day after tomorrow, 23 January, Wednesday

    Time Temperature Precipitation Wind Pressure Humidity
    00:00 -12°C° 0.5 mm 6 mps 733 mmHg 94%
    01:00 -11°C° 0.5 mm 6 mps 733 mmHg 94%
    02:00 -11°C° 0.5 mm 6 mps 732 mmHg 94%
    03:00 -11°C° 0.4 mm 6 mps 731 mmHg 94%
    04:00 -10°C° 0.4 mm 6 mps 731 mmHg 94%
    05:00 -10°C° 0.4 mm 6 mps 730 mmHg 94%
    06:00 -9°C° 0.6 mm 6 mps 729 mmHg 94%
    07:00 -9°C° 0.6 mm 6 mps 729 mmHg 94%
    08:00 -8°C° 0.6 mm 5 mps 729 mmHg 95%
    09:00 -7°C° 0.8 mm 5 mps 728 mmHg 95%
    10:00 -5°C° 0.8 mm 5 mps 728 mmHg 95%
    11:00 -4°C° 0.8 mm 5 mps 728 mmHg 95%
    12:00 -3°C° 0.8 mm 4 mps 727 mmHg 96%
    13:00 -1°C° 0.8 mm 3 mps 727 mmHg 98%
    14:00 -1°C° 0.8 mm 3 mps 726 mmHg 99%
    15:00 -1°C° 0.7 mm 3 mps 726 mmHg 98%
    16:00 -1°C° 0.7 mm 3 mps 726 mmHg 98%
    17:00 -1°C° 0.7 mm 3 mps 725 mmHg 97%
    18:00 -1°C° 0.2 mm 3 mps 726 mmHg 97%
    19:00 -1°C° 0.2 mm 3 mps 726 mmHg 97%
    20:00 -1°C° 0.2 mm 3 mps 726 mmHg 97%
    21:00 -2°C° 0.1 mm 3 mps 726 mmHg 97%
    22:00 -2°C° 0.1 mm 3 mps 726 mmHg 97%
    23:00 -3°C° 0.1 mm 4 mps 727 mmHg 96%

    24 January, Thursday

    Time Temperature Precipitation Wind Pressure Humidity
    00:00 -4°C° 0.1 mm 4 mps 727 mmHg 96%
    01:00 -7°C° 0.1 mm 5 mps 728 mmHg 95%
    02:00 -8°C° 0.1 mm 5 mps 729 mmHg 95%
    03:00 -8°C° 0.1 mm 5 mps 729 mmHg 95%
    04:00 -9°C° 0.1 mm 4 mps 730 mmHg 95%
    05:00 -9°C° 0.1 mm 4 mps 730 mmHg 94%
    06:00 -10°C° 0 mm 4 mps 731 mmHg 94%
    07:00 -10°C° 0 mm 4 mps 732 mmHg 94%
    08:00 -11°C° 0 mm 4 mps 733 mmHg 94%
    09:00 -11°C° 0 mm 4 mps 733 mmHg 94%
    10:00 -11°C° 0 mm 4 mps 734 mmHg 94%
    11:00 -12°C° 0 mm 4 mps 734 mmHg 95%
    12:00 -11°C° 0 mm 4 mps 734 mmHg 94%
    13:00 -11°C° 0 mm 4 mps 735 mmHg 93%
    14:00 -11°C° 0 mm 4 mps 735 mmHg 92%
    15:00 -10°C° 0 mm 3 mps 735 mmHg 92%
    16:00 -12°C° 0 mm 3 mps 735 mmHg 93%
    17:00 -12°C° 0 mm 3 mps 735 mmHg 93%
    18:00 -13°C° 0 mm 3 mps 735 mmHg 94%
    19:00 -14°C° 0 mm 4 mps 736 mmHg 94%
    20:00 -14°C° 0 mm 4 mps 736 mmHg 94%
    21:00 -15°C° 0 mm 4 mps 736 mmHg 94%
    22:00 -15°C° 0 mm 4 mps 736 mmHg 95%
    23:00 -16°C° 0 mm 4 mps 736 mmHg 95%

    25 January, Friday

    Time Temperature Precipitation Wind Pressure Humidity
    00:00 -15°C° 0 mm 3 mps 736 mmHg 95%
    01:00 -15°C° 0 mm 3 mps 736 mmHg 96%
    02:00 -15°C° 0 mm 3 mps 736 mmHg 96%
    03:00 -15°C° 0 mm 3 mps 736 mmHg 96%
    04:00 -16°C° 0 mm 3 mps 736 mmHg 97%
    05:00 -16°C° 0 mm 3 mps 736 mmHg 97%
    06:00 -17°C° 0 mm 3 mps 736 mmHg 97%
    07:00 -17°C° 0 mm 3 mps 736 mmHg 97%
    08:00 -18°C° 0 mm 3 mps 736 mmHg 97%
    09:00 -17°C° 0 mm 3 mps 736 mmHg 96%
    10:00 -17°C° 0 mm 3 mps 736 mmHg 96%
    11:00 -17°C° 0 mm 3 mps 736 mmHg 95%
    12:00 -16°C° 0 mm 3 mps 736 mmHg 95%
    13:00 -15°C° 0 mm 2 mps 735 mmHg 95%
    14:00 -14°C° 0 mm 2 mps 735 mmHg 94%
    15:00 -14°C° 0 mm 2 mps 735 mmHg 95%
    16:00 -14°C° 0 mm 2 mps 735 mmHg 95%
    17:00 -14°C° 0 mm 2 mps 735 mmHg 95%
    18:00 -14°C° 0.1 mm 2 mps 735 mmHg 96%
    19:00 -14°C° 0.1 mm 2 mps 735 mmHg 96%
    20:00 -14°C° 0.1 mm 2 mps 735 mmHg 96%
    21:00 -14°C° 0.1 mm 2 mps 735 mmHg 96%
    22:00 -12°C° 0.1 mm 1 mps 735 mmHg 96%
    23:00 -11°C° 0.1 mm 1 mps 735 mmHg 96%

    26 January, Saturday

    Time Temperature Precipitation Wind Pressure Humidity
    00:00 -11°C° 0 mm 1 mps 734 mmHg 96%
    01:00 -11°C° 0 mm 1 mps 734 mmHg 96%
    02:00 -11°C° 0 mm 1 mps 733 mmHg 96%
    03:00 -11°C° 0 mm 1 mps 733 mmHg 96%
    04:00 -11°C° 0 mm 1 mps 733 mmHg 96%
    05:00 -11°C° 0 mm 1 mps 733 mmHg 96%
    06:00 -11°C° 0 mm 1 mps 733 mmHg 96%
    07:00 -11°C° 0 mm 1 mps 732 mmHg 96%
    08:00 -11°C° 0 mm 0 mps 732 mmHg 96%
    09:00 -10°C° 0 mm 0 mps 732 mmHg 95%
    10:00 -9°C° 0 mm 0 mps 732 mmHg 94%
    11:00 -8°C° 0 mm 0 mps 732 mmHg 93%
    12:00 -7°C° 0 mm 1 mps 732 mmHg 93%
    13:00 -7°C° 0 mm 1 mps 731 mmHg 93%
    14:00 -6°C° 0 mm 1 mps 731 mmHg 93%
    15:00 -7°C° 0 mm 1 mps 731 mmHg 94%
    16:00 -7°C° 0 mm 1 mps 730 mmHg 95%
    17:00 -7°C° 0 mm 1 mps 730 mmHg 96%
    18:00 -7°C° 0 mm 1 mps 730 mmHg 96%
    19:00 -8°C° 0 mm 2 mps 730 mmHg 96%
    20:00 -8°C° 0 mm 2 mps 730 mmHg 96%
    21:00 -8°C° 0 mm 2 mps 730 mmHg 96%
    22:00 -8°C° 0 mm 2 mps 730 mmHg 96%
    23:00 -8°C° 0 mm 2 mps 730 mmHg 96%
    Show more